DW7857 Weather Reports


Display with metric or nautical units.
time (UTC)temp
F
wind
direction
speed
MPH
gust
MPH
rain 1hr
in
rain 24hr
in
rain mn
in
humidity
%
barometer
mb
20170426231008 35 225 0.0 1.0 0.00 0.01 0.01 71 1005.9
20170426230008 36 0 0.0 0.0 0.00 0.01 0.01 71 1006.1
20170426225008 36 0 0.0 0.0 0.00 0.01 0.01 70 1005.9
20170426224008 36 0 0.0 0.0 0.00 0.01 0.01 70 1006.0
20170426223008 37 0 0.0 0.0 0.00 0.01 0.01 70 1006.2
20170426222008 38 0 0.0 0.0 0.00 0.01 0.01 70 1005.9
20170426221009 38 225 0.0 2.0 0.00 0.01 0.01 71 1005.7
20170426220008 38 225 2.0 2.0 0.00 0.01 0.01 72 1006.0
20170426215008 38 225 0.0 2.0 0.00 0.01 0.01 71 1006.1
20170426214009 38 237 0.0 2.0 0.00 0.01 0.01 69 1005.8
20170426213009 38 9 0.0 2.0 0.00 0.01 0.01 67 1005.9
20170426212009 38 0 0.0 0.0 0.00 0.01 0.01 65 1005.9
20170426211009 39 0 0.0 0.0 0.00 0.01 0.01 64 1005.6
20170426210009 40 0 0.0 0.0 0.00 0.01 0.01 64 1005.6
20170426205009 40 45 0.0 1.0 0.00 0.01 0.01 63 1005.4
20170426204008 41 45 0.0 1.0 0.00 0.01 0.01 62 1005.5
20170426203009 41 45 0.0 2.0 0.00 0.01 0.01 60 1005.4
20170426202009 42 270 1.0 2.0 0.00 0.01 0.01 60 1005.2
20170426201009 42 311 0.0 2.0 0.00 0.01 0.01 61 1005.4
20170426200009 43 300 1.0 2.0 0.00 0.01 0.01 61 1005.2
20170426195008 43 270 1.0 2.0 0.00 0.01 0.01 61 1005.1
20170426194009 43 314 1.0 2.0 0.00 0.01 0.01 61 1005.0
20170426193009 44 22 1.0 2.0 0.00 0.01 0.01 60 1005.2
20170426192009 44 22 2.0 3.0 0.00 0.01 0.01 60 1004.9
20170426191009 45 36 4.0 6.0 0.00 0.01 0.01 60 1005.0
20170426190009 46 26 6.0 7.0 0.00 0.01 0.01 52 1004.9
20170426185009 46 7 7.0 13.0 0.00 0.01 0.01 50 1004.7
20170426184008 48 2 6.0 9.0 0.00 0.01 0.01 46 1004.5
20170426183008 50 23 4.0 6.0 0.00 0.01 0.01 42 1004.7
20170426182008 52 310 4.0 7.0 0.00 0.01 0.01 42 1004.5
20170426181008 53 346 3.0 5.0 0.01 0.01 0.01 40 1004.3
20170426180008 52 283 2.0 3.0 0.01 0.01 0.01 42 1004.2
20170426175008 49 272 1.0 4.0 0.01 0.01 0.01 44 1004.3
20170426174008 47 26 2.0 3.0 0.01 0.01 0.01 48 1004.2
20170426173008 47 48 4.0 9.0 0.01 0.01 0.01 50 1004.1
20170426172008 46 37 10.0 13.0 0.01 0.01 0.01 51 1004.2
20170426171008 47 358 11.0 13.0 0.00 0.00 0.00 41 1004.2
20170426170009 51 98 9.0 15.0 0.00 0.00 0.00 40 1003.8
20170426165009 54 357 9.0 11.0 0.00 0.00 0.00 32 1003.8
20170426164008 54 28 8.0 11.0 0.00 0.00 0.00 33 1003.8
20170426163008 51 65 6.0 11.0 0.00 0.00 0.00 34 1003.7
20170426162008 51 357 7.0 9.0 0.00 0.00 0.00 33 1003.7
20170426161008 53 335 8.0 11.0 0.00 0.00 0.00 32 1003.6
20170426160008 54 312 8.0 12.0 0.00 0.00 0.00 31 1003.5
20170426155008 55 304 8.0 11.0 0.00 0.00 0.00 26 1003.4
20170426154008 56 291 7.0 11.0 0.00 0.00 0.00 26 1003.4
20170426153009 56 263 6.0 11.0 0.00 0.00 0.00 26 1003.6
20170426152009 55 304 8.0 12.0 0.00 0.00 0.00 26 1003.5
20170426151009 56 1 8.0 11.0 0.00 0.00 0.00 26 1003.9
20170426150009 55 8 8.0 12.0 0.00 0.00 0.00 26 1003.8
20170426145009 53 299 7.0 11.0 0.00 0.00 0.00 32 1004.0
20170426144007 54 9 10.0 13.0 0.00 0.00 0.00 30 1003.7
20170426143008 55 9 9.0 12.0 0.00 0.00 0.00 30 1003.8
20170426142008 54 309 7.0 9.0 0.00 0.00 0.00 35 1003.8
20170426141008 52 359 10.0 14.0 0.00 0.00 0.00 34 1003.9
20170426140008 56 322 7.0 11.0 0.00 0.01 0.00 31 1003.8
20170426135008 52 22 7.0 11.0 0.00 0.01 0.00 33 1003.8
20170426134009 54 16 9.0 13.0 0.00 0.01 0.00 32 1003.8
20170426133009 55 270 7.0 11.0 0.00 0.01 0.00 31 1003.9
20170426132008 54 350 7.0 10.0 0.00 0.01 0.00 36 1003.8
20170426131009 54 323 8.0 13.0 0.00 0.01 0.00 32 1003.9
20170426130009 54 338 9.0 14.0 0.00 0.01 0.00 38 1003.9
20170426125009 52 35 9.0 14.0 0.00 0.01 0.00 39 1003.9
20170426124009 54 347 8.0 11.0 0.00 0.01 0.00 36 1004.1
20170426123009 53 350 8.0 10.0 0.00 0.01 0.00 37 1004.1
20170426122009 51 318 9.0 11.0 0.00 0.01 0.00 39 1004.0
20170426121008 51 284 9.0 15.0 0.00 0.01 0.00 40 1004.1
20170426120008 51 303 8.0 14.0 0.00 0.01 0.00 42 1003.9
20170426115008 50 309 8.0 11.0 0.00 0.01 0.00 40 1004.1
20170426114008 50 303 10.0 14.0 0.00 0.01 0.00 40 1004.3
20170426113009 54 24 9.0 13.0 0.00 0.01 0.00 40 1004.0
20170426112009 52 7 7.0 12.0 0.00 0.01 0.00 43 1004.3
20170426111009 51 322 8.0 11.0 0.00 0.01 0.00 43 1004.4
20170426110009 49 298 11.0 14.0 0.00 0.01 0.00 43 1004.2
20170426105009 48 300 9.0 11.0 0.00 0.01 0.00 47 1004.1
20170426104007 50 10 9.0 12.0 0.00 0.01 0.00 45 1004.2
20170426103007 48 262 9.0 12.0 0.00 0.01 0.00 45 1004.2
20170426102009 50 332 10.0 14.0 0.00 0.01 0.00 45 1004.3
20170426101009 50 300 9.0 11.0 0.00 0.01 0.00 46 1004.0
20170426100008 50 297 11.0 13.0 0.00 0.01 0.00 47 1003.9
20170426095009 48 320 10.0 15.0 0.00 0.01 0.00 51 1003.9
20170426094008 49 265 7.0 11.0 0.00 0.01 0.00 50 1004.1
20170426093009 48 353 8.0 11.0 0.00 0.01 0.00 49 1004.1
20170426092008 49 16 7.0 11.0 0.00 0.01 0.00 51 1004.0
20170426091008 46 39 7.0 10.0 0.00 0.01 0.00 55 1004.1
20170426090008 44 339 7.0 11.0 0.00 0.01 0.00 61 1004.1
20170426085008 44 355 6.0 11.0 0.00 0.01 0.00 62 1004.2
20170426084008 44 308 6.0 11.0 0.00 0.01 0.00 62 1004.1
20170426083008 43 354 7.0 10.0 0.00 0.01 0.00 62 1004.3
20170426082008 44 22 7.0 11.0 0.00 0.01 0.00 61 1004.0
20170426081009 44 322 6.0 8.0 0.00 0.01 0.00 63 1004.0
20170426080008 42 217 8.0 12.0 0.00 0.01 0.00 63 1004.0
20170426075008 41 24 7.0 9.0 0.00 0.01 0.00 64 1004.0
20170426074008 42 30 9.0 12.0 0.00 0.01 0.00 63 1003.9
20170426073008 44 20 8.0 10.0 0.00 0.01 0.00 63 1003.6
20170426072008 43 351 8.0 10.0 0.00 0.01 0.00 66 1003.9
20170426071008 41 348 8.0 9.0 0.00 0.01 0.00 71 1003.8
20170426070008 39 40 7.0 11.0 0.00 0.01 0.00 72 1003.6
20170426065008 38 116 7.0 10.0 0.00 0.01 0.00 74 1003.6
20170426064008 38 21 6.0 9.0 0.00 0.01 0.00 75 1003.6
20170426063008 37 26 6.0 8.0 0.00 0.01 0.00 76 1003.7
20170426062008 36 19 5.0 7.0 0.00 0.01 0.00 77 1003.4
20170426061008 36 35 5.0 8.0 0.00 0.01 0.00 78 1003.4
20170426060008 36 39 4.0 6.0 0.00 0.01 0.00 79 1003.4
20170426055008 35 27 4.0 6.0 0.00 0.01 0.00 80 1003.2
20170426054008 35 30 4.0 5.0 0.00 0.01 0.00 80 1003.1
20170426053008 34 20 4.0 5.0 0.00 0.01 0.00 81 1003.1
20170426052008 34 31 4.0 4.0 0.00 0.01 0.00 81 1003.0
20170426051008 33 42 2.0 4.0 0.00 0.01 0.00 81 1002.8
20170426050008 33 23 2.0 3.0 0.00 0.01 0.00 81 1002.7
20170426045008 33 27 2.0 3.0 0.00 0.01 0.00 81 1002.5
20170426044008 33 43 2.0 3.0 0.00 0.01 0.00 80 1002.3
20170426043008 33 16 2.0 2.0 0.00 0.01 0.00 80 1002.4
20170426042008 33 31 2.0 2.0 0.00 0.01 0.00 80 1002.4
20170426041008 33 5 1.0 2.0 0.00 0.01 0.00 80 1002.3
20170426040009 33 26 1.0 2.0 0.00 0.01 0.00 80 1002.2
20170426035006 33 1 1.0 2.0 0.00 0.01 0.00 80 1002.3
20170426034008 33 37 1.0 2.0 0.00 0.01 0.00 80 1002.2
20170426033008 33 1 0.0 2.0 0.00 0.01 0.00 80 1002.3
20170426032008 33 40 1.0 2.0 0.00 0.01 0.00 80 1002.2
20170426031008 33 45 0.0 2.0 0.00 0.01 0.00 80 1002.2
20170426030008 33 0 0.0 0.0 0.00 0.01 0.00 80 1002.1
20170426025008 33 0 0.0 0.0 0.00 0.01 0.00 80 1002.1
20170426024008 33 0 0.0 0.0 0.00 0.01 0.00 80 1002.0
20170426023008 33 0 0.0 0.0 0.00 0.01 0.00 80 1002.2
20170426022008 33 0 0.0 0.0 0.00 0.01 0.00 80 1002.0
20170426021008 33 45 0.0 1.0 0.00 0.01 0.00 80 1002.0
20170426020008 33 0 0.0 0.0 0.00 0.01 0.00 80 1001.8
20170426015008 33 0 0.0 0.0 0.00 0.01 0.00 80 1001.8
20170426014008 33 0 0.0 0.0 0.00 0.01 0.00 80 1001.8
20170426013008 34 45 0.0 1.0 0.00 0.01 0.00 80 1002.0
20170426012008 34 52 1.0 2.0 0.00 0.01 0.00 80 1002.0
20170426011008 34 2 0.0 2.0 0.00 0.01 0.00 80 1002.0
20170426010008 34 1 1.0 2.0 0.00 0.01 0.00 80 1002.0
20170426005008 34 358 1.0 2.0 0.00 0.01 0.00 80 1001.9
20170426004009 35 6 2.0 2.0 0.00 0.01 0.00 80 1002.0
20170426003008 35 22 2.0 3.0 0.00 0.01 0.00 80 1001.9
20170426002008 35 14 2.0 3.0 0.00 0.01 0.00 80 1001.8
20170426001009 35 349 1.0 2.0 0.00 0.01 0.00 79 1002.2
20170426000016 35 11 1.0 2.0 0.00 0.01 0.00 79 1002.1
20170425235009 35 23 1.0 2.0 0.00 0.01 0.01 79 1002.0
20170425234009 35 40 1.0 2.0 0.00 0.01 0.01 78 1002.2
20170425233009 35 350 1.0 2.0 0.00 0.01 0.01 78 1002.0
20170425232009 35 44 1.0 2.0 0.00 0.01 0.01 77 1002.0